Temp
10 10 10 10 10 9 9 9 10 10 10 9 9 9 8 8 7 7 5 4 2 2 2 1 0 0 -0
10 10 10 10 9 9 9 9 10 10 10 9 9 9 8 8 7 6 4 4 2 1 1 -0 0 -0 -0
10 10 10 10 10 10 10 10 10 10 9 9 9 8 7 7 6 4 3 2 1 0 0 -0 -1 -0 -1
11 11 11 11 10 10 10 10 10 9 9 8 8 7 8 7 5 5 4 1 -0 -1 -0 -1 -1 -1 -1
10 10 10 11 10 10 9 9 9 8 8 8 7 6 6 6 5 4 2 1 -1 -1 -2 -3 -2 -2 -2
9 9 9 9 9 9 8 8 8 8 8 8 6 6 6 6 5 3 2 0 -1 -2 -2 -2 -2 -2 -2
8 8 8 8 8 8 8 7 7 7 6 6 6 6 7 6 4 3 2 0 -1 -2 -2 -4 -3 -3 -3
7 6 6 6 6 6 6 6 6 6 5 5 6 5 5 6 4 3 2 1 -1 -2 -2 -3 -3 -4 -4
6 7 5 5 4 4 5 5 5 5 5 4 4 5 4 4 4 2 1 -1 -1 -2 -4 -4 -4 -4 -5
7 6 5 6 5 4 4 4 4 3 4 4 4 3 2 3 3 2 0 -2 -2 -4 -5 -4 -6 -6 -5
5 5 5 4 4 3 2 3 3 3 3 3 2 1 1 1 1 1 -0 -2 -4 -5 -6 -6 -6 -7 -6
2 2 2 1 1 0 1 2 2 2 1 1 0 0 -0 -1 -1 -1 -2 -3 -5 -5 -5 -6 -7 -7 -6
-1 -1 -2 -2 -1 -0 0 1 2 2 1 0 -1 -1 -2 -3 -3 -3 -3 -4 -5 -6 -6 -7 -7 -7 -7
-4 -3 -3 -3 -2 -1 -0 -0 -0 0 0 -0 -2 -3 -3 -4 -4 -4 -4 -4 -5 -6 -7 -7 -7 -7 -7
-4 -4 -4 -3 -3 -2 -2 -2 -2 -1 -1 -2 -2 -3 -4 -4 -5 -5 -5 -5 -6 -6 -7 -7 -7 -7 -7
-5 -5 -5 -4 -3 -3 -3 -3 -3 -3 -3 -3 -4 -5 -5 -6 -6 -6 -6 -6 -6 -7 -7 -8 -7 -7 -7
-7 -6 -6 -5 -4 -4 -4 -4 -4 -4 -4 -4 -5 -5 -6 -6 -6 -6 -6 -6 -7 -7 -8 -8 -7 -8 -8
Height
1545 1546 1545 1544 1544 1543 1541 1540 1539 1538 1536 1535 1533 1531 1529 1526 1524 1522 1520 1517 1516 1514 1511 1508 1505 1502 1501
1537 1537 1537 1536 1534 1533 1532 1532 1531 1530 1528 1526 1524 1522 1520 1518 1516 1514 1512 1510 1507 1506 1504 1502 1500 1498 1496
1526 1527 1526 1526 1524 1523 1521 1521 1520 1519 1518 1516 1515 1512 1510 1507 1504 1503 1504 1502 1500 1498 1496 1495 1494 1492 1491
1516 1516 1515 1516 1513 1512 1509 1509 1508 1508 1508 1506 1504 1500 1499 1497 1495 1493 1491 1493 1492 1490 1489 1488 1488 1486 1485
1505 1504 1503 1503 1503 1501 1499 1499 1497 1497 1494 1493 1492 1490 1489 1487 1485 1483 1483 1483 1482 1483 1481 1480 1481 1480 1479
1496 1493 1492 1491 1492 1491 1490 1488 1486 1486 1482 1481 1481 1478 1478 1478 1476 1474 1474 1473 1474 1475 1473 1472 1474 1474 1473
1484 1484 1482 1483 1483 1479 1479 1476 1475 1474 1473 1468 1470 1468 1468 1469 1467 1465 1464 1463 1464 1465 1466 1466 1468 1468 1468
1473 1474 1474 1469 1470 1469 1466 1466 1464 1463 1464 1459 1459 1458 1459 1457 1456 1455 1455 1454 1456 1457 1457 1459 1462 1463 1463
1467 1464 1464 1464 1460 1460 1458 1455 1454 1453 1454 1451 1448 1449 1448 1447 1447 1446 1446 1446 1447 1449 1451 1452 1455 1457 1457
1457 1455 1455 1454 1454 1451 1451 1448 1446 1442 1442 1443 1440 1442 1438 1435 1436 1437 1437 1439 1440 1442 1444 1446 1448 1449 1450
1446 1444 1443 1443 1442 1440 1441 1440 1437 1433 1433 1434 1431 1432 1432 1429 1428 1429 1429 1431 1434 1437 1439 1440 1443 1444 1445
1436 1434 1432 1431 1431 1431 1430 1428 1428 1427 1426 1425 1424 1423 1423 1422 1422 1422 1423 1424 1426 1428 1433 1436 1438 1441 1441
1428 1426 1425 1423 1423 1422 1421 1419 1418 1417 1417 1415 1415 1415 1415 1414 1416 1416 1417 1419 1422 1424 1425 1429 1432 1435 1438
1423 1421 1418 1416 1414 1414 1412 1411 1408 1406 1406 1406 1408 1409 1406 1405 1407 1410 1411 1413 1416 1419 1421 1423 1426 1427 1432
1418 1414 1412 1410 1408 1406 1404 1403 1400 1399 1400 1399 1399 1400 1401 1401 1401 1403 1405 1407 1410 1413 1416 1418 1421 1424 1427
1413 1410 1407 1404 1402 1399 1399 1397 1394 1393 1393 1393 1394 1393 1394 1395 1397 1397 1399 1402 1405 1408 1411 1413 1416 1420 1423
1407 1404 1402 1399 1396 1394 1392 1391 1389 1388 1387 1388 1388 1388 1388 1389 1392 1394 1396 1398 1401 1405 1407 1410 1412 1415 1418
Wind_Speed
33 31 31 31 29 29 29 28 27 27 29 30 31 31 32 34 33 32 30 30 26 25 24 22 21 23 21
39 35 33 32 33 33 33 32 32 31 34 35 36 37 36 37 36 36 34 35 29 26 24 23 23 23 22
44 41 38 36 35 36 36 37 36 37 39 40 40 41 40 40 39 36 36 35 30 25 25 23 23 23 22
43 43 43 40 42 41 42 42 42 43 42 43 44 46 46 45 44 41 38 36 27 26 24 23 23 23 20
45 46 46 46 45 44 46 45 45 43 44 44 47 43 41 39 40 41 38 34 28 26 25 23 22 21 20
48 50 51 51 47 45 44 44 48 40 39 43 36 36 34 38 39 37 36 36 29 29 29 23 20 21 19
50 52 52 51 50 51 48 49 47 43 40 39 37 38 37 37 36 33 35 33 31 29 27 22 20 20 19
35 36 34 31 34 38 40 38 41 40 39 41 41 40 35 36 34 31 32 30 28 29 26 21 19 20 19
38 40 35 30 26 28 32 34 38 41 36 38 42 39 37 35 32 30 28 26 27 28 23 21 19 21 19
39 41 40 41 39 37 33 34 34 38 35 30 34 30 28 31 26 27 28 29 27 25 24 22 19 21 20
36 37 36 33 31 29 27 29 33 37 38 35 36 32 27 30 24 20 25 27 25 26 25 21 18 21 18
33 34 33 31 28 26 26 28 30 32 33 34 34 32 29 31 30 26 25 25 27 28 23 20 18 20 17
29 32 31 29 28 27 26 28 30 30 31 33 34 32 29 30 29 28 22 24 26 27 26 23 21 23 19
26 28 27 27 27 26 27 27 28 29 28 29 31 30 29 27 27 26 23 17 22 28 26 24 21 18 18
23 26 28 27 27 25 25 26 27 29 28 27 27 26 27 26 25 25 22 20 21 20 25 23 19 19 19
23 26 26 27 27 26 25 26 27 28 28 27 25 25 25 26 25 23 22 20 21 19 19 18 17 18 18
23 26 26 25 25 25 26 26 27 27 28 28 25 25 28 30 26 24 23 22 21 20 19 18 16 17 16
Wind_Direction
291 292 289 289 289 289 286 285 285 285 283 282 282 282 283 282 286 285 282 280 281 291 293 285 285 291 294
280 287 288 287 285 282 284 285 284 283 282 282 284 285 285 284 284 282 278 283 276 285 286 280 280 289 291
277 281 284 282 280 280 280 279 278 280 279 281 283 284 283 280 279 276 276 280 275 278 282 276 278 283 287
275 277 277 280 277 278 278 279 280 280 282 281 280 279 283 287 285 283 279 277 270 273 277 272 275 279 284
273 276 275 276 278 282 281 284 283 283 283 282 281 281 283 286 285 281 279 276 262 266 266 263 269 272 277
276 276 278 280 283 283 284 282 285 286 287 291 284 281 282 284 283 278 275 270 262 259 258 258 261 264 271
269 272 277 281 282 281 285 282 284 284 283 286 282 281 289 284 283 278 270 264 256 257 258 250 255 258 261
266 278 280 278 279 283 281 285 282 281 282 280 282 281 283 284 283 276 269 261 252 254 247 243 246 251 255
276 280 276 274 274 280 273 275 275 277 279 278 278 280 281 282 281 272 261 252 251 250 237 239 237 247 247
276 276 278 279 279 274 276 276 275 277 283 275 278 277 278 283 275 263 256 251 248 235 227 232 231 238 245
289 288 287 287 286 284 278 276 278 276 277 275 276 274 270 272 274 262 252 245 233 221 228 231 225 239 242
290 292 293 293 291 284 275 273 272 275 276 273 270 270 269 269 266 267 252 238 226 228 232 228 222 239 246
299 297 300 299 296 291 284 277 275 272 269 267 267 266 264 266 265 265 252 235 228 226 231 222 220 234 241
303 304 303 302 300 295 288 285 279 272 268 267 265 261 260 255 263 260 251 229 231 226 224 220 227 231 236
311 309 308 307 303 300 293 288 281 280 278 272 263 259 257 258 253 245 243 234 237 226 219 223 226 231 232
305 305 307 306 305 301 296 290 285 282 279 274 264 249 246 247 242 238 232 234 232 219 209 212 220 227 229
299 302 303 303 307 303 299 294 289 284 279 275 265 251 242 238 239 232 231 233 223 218 218 216 222 226 231